Back to catalog

STARLINK-38159

AliveCommunicationsSSO
NORAD 100186·PAYLOAD·🇺🇸 United States

Launched Aug 1, 2026 from Vandenberg Space Force Base

Loading…

Next Passes (next 24 hours)

TLE

FreshSource: Space-Track

Epoch: Sep 14, 2026, 11:55 UTC

1 A0186U 26175H   26257.49702377  .00200384  00000-0  13102-2 0  9993
2 A0186  97.2847  99.6733 0001352 152.5651 207.5686 15.75240938  8238

Track STARLINK-38159 in real time with AllMySat

Download on the App Store